This is the latest recevied weather packets stored in our database for station/object N3TJJ-2. If no packets are shown the sender has not sent any weather packets the latest 1 day(s).
| Time | Temp. | Humidity | Pressure | Rain* | Wind** | Luminosity | Snow |
|---|---|---|---|---|---|---|---|
| 1778009722 | 27.22° C | 41% | 1009.2 hPa | 0 mm | 5.81 m/s, 40° | - | - |
| 1778009356 | 27.22° C | 41% | 1009.4 hPa | 0 mm | 5.36 m/s, 33° | - | - |
| 1778008997 | 27.22° C | 41% | 1009.5 hPa | 0 mm | 7.6 m/s, 44° | - | - |
| 1778008641 | 27.22° C | 42% | 1009.5 hPa | 0 mm | 5.36 m/s, 36° | - | - |
| 1778008275 | 27.22° C | 42% | 1009.6 hPa | 0 mm | 4.92 m/s, 29° | - | - |
| 1778007915 | 27.22° C | 42% | 1009.6 hPa | 0 mm | 5.81 m/s, 48° | - | - |
| 1778007556 | 27.22° C | 41% | 1009.7 hPa | 0 mm | 6.71 m/s, 51° | - | - |
| 1778007197 | 27.22° C | 43% | 1009.8 hPa | 0 mm | 4.47 m/s, 41° | - | - |
| 1778006835 | 27.22° C | 44% | 1009.8 hPa | 0 mm | 5.36 m/s, 39° | - | - |
| 1778006487 | 27.22° C | 42% | 1009.9 hPa | 0 mm | 6.71 m/s, 56° | - | - |
| 1778006120 | 26.67° C | 44% | 1010 hPa | 0 mm | 5.81 m/s, 60° | - | - |
| 1778005755 | 26.67° C | 44% | 1010 hPa | 0 mm | 5.81 m/s, 25° | - | - |
| 1778005396 | 27.22° C | 42% | 1010.1 hPa | 0 mm | 5.81 m/s, 64° | - | - |
| 1778005035 | 27.22° C | 42% | 1010.3 hPa | 0 mm | 6.26 m/s, 60° | - | - |
| 1778004683 | 27.22° C | 44% | 1010.2 hPa | 0 mm | 4.92 m/s, 44° | - | - |
| 1778004320 | 27.22° C | 45% | 1010.3 hPa | 0 mm | 4.92 m/s, 42° | - | - |
| 1778003955 | 27.22° C | 44% | 1010.2 hPa | 0 mm | 6.71 m/s, 38° | - | - |
| 1778003595 | 26.67° C | 45% | 1010.2 hPa | 0 mm | 5.36 m/s, 42° | - | - |
| 1778003236 | 26.67° C | 47% | 1010.3 hPa | 0 mm | 4.47 m/s, 23° | - | - |
| 1778002879 | 26.67° C | 46% | 1010.3 hPa | 0 mm | 6.26 m/s, 37° | - | - |
| 1778002518 | 26.67° C | 45% | 1010.2 hPa | 0 mm | 6.26 m/s, 53° | - | - |
| 1778002156 | 26.67° C | 44% | 1010.4 hPa | 0 mm | 3.58 m/s, 53° | - | - |
| 1778001806 | 27.22° C | 43% | 1010.6 hPa | 0 mm | 5.36 m/s, 80° | - | - |
| 1778001454 | 26.67° C | 41% | 1010.6 hPa | 0 mm | 3.58 m/s, 79° | - | - |
| 1778001079 | 27.22° C | 42% | 1010.5 hPa | 0 mm | 6.26 m/s, 90° | - | - |
* Rain latest hour (hover to see other rain measurements)
** Current wind speed in m/s (hover to see current wind gust speed)